Flag for Netherlands Weather past 2 weeks in Hoofddorp, Netherlands

Now
54 °F

Scattered showers. Passing clouds.


Feels Like: 50 °F
Forecast: 53 / 58 °F
Wind: 12 mph from Northwest

Location: Amsterdam Schiphol Airport

Current Time: Oct 22, 2014 at 5:55:03 PM

Latest Report: Oct 22, 2014 at 5:25 PM


Visibility: N/A

Pressure: 30.12 "Hg

Humidity: 72%

Dew point: 45 °F

Location of HoofddorpLocation

Historic Weather in Hoofddorp — Graph

°F

Hoofddorp temperature yesterday

Maximum temperature yesterday: 57 °F (at 12:25 AM)
Minimum temperature yesterday: 48 °F (at 7:55 PM)
Average temperature yesterday: 54 °F

Past Weeks' High & Low Weather Summary

 TemperatureHumidityPressure
High72 °F (Oct 18, 3:55 PM)100% (Oct 8, 1:25 PM)30.09 "Hg (Oct 8, 1:25 PM)
Low46 °F (Oct 22, 4:55 AM)6% (Oct 21, 5:25 PM)29.42 "Hg (Oct 21, 1:25 PM)
Average57 °F88%29.77 "Hg
* Reported Oct 7 4:25 PM — Oct 22 4:25 PM, Hoofddorp, Weather by CustomWeather, © 2014

Note: Actual official high and low records may vary slightly from our data, if they occured in-between our weather recording intervals... More about our weather records

Advertising

Hoofddorp weather history for previous 24 hours

 ConditionsComfort  
Time TempWeatherWind HumidityBarometerVisibility
4:25 PM
Oct 22
54 °FSprinkles. Scattered clouds.17 mph77%30.09 "HgN/A
3:55 PM52 °FPassing clouds.21 mph77%30.09 "HgN/A
3:25 PM54 °FScattered showers. Passing clouds.14 mph72%30.09 "HgN/A
2:55 PM52 °FSprinkles. Passing clouds.21 mph82%30.09 "HgN/A
2:25 PM55 °FScattered showers. Passing clouds.22 mph72%30.09 "HgN/A
1:55 PM54 °FScattered showers. Passing clouds.24 mph67%30.07 "HgN/A
1:25 PM54 °FScattered showers. Passing clouds.15 mph77%30.07 "HgN/A
12:55 PM55 °FScattered showers. Passing clouds.16 mph63%30.07 "HgN/A
12:25 PM55 °FScattered showers. Passing clouds.20 mph67%30.07 "HgN/A
11:55 AM50 °FSprinkles. Scattered clouds.21 mph82%30.07 "HgN/A
11:25 AM52 °FScattered showers. Passing clouds.22 mph77%30.04 "HgN/A
10:55 AM52 °FPassing clouds.23 mph72%30.04 "HgN/A
10:25 AM50 °FSprinkles. Passing clouds.16 mph82%30.01 "HgN/A
9:55 AM52 °FSprinkles. Passing clouds.17 mph77%30.01 "HgN/A
9:25 AM52 °FScattered showers. Passing clouds.21 mph72%30.01 "HgN/A
8:55 AM50 °FScattered showers. Passing clouds.23 mph76%29.98 "HgN/A
8:25 AM52 °FScattered showers. Passing clouds.20 mph67%29.98 "HgN/A
7:55 AM50 °FSprinkles. Passing clouds.18 mph76%29.95 "HgN/A
7:25 AM50 °FPassing clouds.26 mph71%29.95 "HgN/A
6:55 AM48 °FSprinkles. Passing clouds.26 mph76%29.95 "HgN/A
6:25 AM50 °FScattered showers. Passing clouds.26 mph71%29.92 "HgN/A
5:55 AM50 °FSprinkles. Passing clouds.22 mph76%29.92 "HgN/A
5:25 AM46 °FSprinkles. Passing clouds.16 mph87%29.92 "HgN/A
4:55 AM46 °FRain showers. Passing clouds.25 mph87%29.92 "Hg4 mi
4:25 AM48 °FSprinkles. Passing clouds.22 mph82%29.92 "HgN/A
3:55 AM50 °FScattered showers. Passing clouds.28 mph71%29.89 "HgN/A
3:25 AM50 °FScattered showers. Passing clouds.26 mph67%29.89 "HgN/A
2:55 AM48 °FRain showers. Passing clouds.35 mph76%29.86 "Hg4 mi
2:25 AM50 °FSprinkles. Passing clouds.31 mph67%29.86 "HgN/A
1:55 AM50 °FSprinkles. Passing clouds.28 mph67%29.83 "HgN/A
1:25 AM50 °FScattered showers. Passing clouds.28 mph71%29.83 "HgN/A
12:55 AM50 °FPassing clouds.25 mph71%29.80 "HgN/A
12:25 AM48 °FSprinkles. Partly cloudy.29 mph82%29.77 "HgN/A
11:55 PM
Oct 21
50 °FScattered showers. Passing clouds.28 mph76%29.74 "HgN/A
11:25 PM48 °FSprinkles. Partly cloudy.31 mph76%29.74 "HgN/A
10:55 PM52 °FThunderstorms. Passing clouds.21 mph72%29.71 "HgN/A
10:25 PM50 °FThunderstorms. Passing clouds.38 mph76%29.68 "Hg6 mi
9:55 PM50 °FSprinkles. Passing clouds.22 mph7%29.68 "HgN/A
9:25 PM48 °FPassing clouds.21 mph82%29.65 "HgN/A
8:55 PM50 °FPassing clouds.22 mph71%29.62 "HgN/A
8:25 PM48 °FSprinkles. Passing clouds.23 mph82%29.62 "HgN/A
7:55 PM48 °FThunderstorms. Passing clouds.25 mph87%29.59 "Hg5 mi
7:25 PM50 °FThunderstorms. Passing clouds.17 mph76%29.59 "HgN/A
6:55 PM50 °FScattered clouds.30 mph71%29.56 "HgN/A
6:25 PM54 °FScattered clouds.22 mph30%29.53 "HgN/A
5:55 PM52 °FScattered clouds.23 mph72%29.53 "HgN/A
5:25 PM54 °FScattered clouds.28 mph6%29.50 "HgN/A
Weather by CustomWeather, © 2014

See weather overviewHow to use our weather pages